Home   Weather   Tallahassee   Past weeks

Flag for USA Past Weather in Tallahassee, Florida, USA — Yesterday and Last 2 Weeks

Now
85 °F

Broken clouds.


Feels Like: 93 °F
Forecast: 75 / 83 °F
Wind: 9 mph from Southwest

Location: Tallahassee Regional Airport

Current Time: Jul 24, 2017 at 12:30:56 pm

Latest Report: Jul 24, 2017 at 11:53 am


Visibility: 10 mi

Pressure: 30.01 "Hg

Humidity: 72%

Dew Point: 75 °F

Location of TallahasseeLocation

Past Weather in Tallahassee — Graph

°F

Tallahassee Temperature Yesterday

Maximum temperature yesterday: 83 °F (at 9:53 am)
Minimum temperature yesterday: 75 °F (at 2:53 am)
Average temperature yesterday: 78 °F

High & Low Weather Summary for the Past Weeks

 TemperatureHumidityPressure
High95 °F (Jul 20, 2:53 pm)100% (Jul 10, 12:53 am)30.18 "Hg (Jul 10, 12:53 am)
Low73 °F (Jul 11, 4:53 am)49% (Jul 20, 2:53 pm)29.93 "Hg (Jul 23, 7:53 pm)
Average80 °F85%30.05 "Hg
* Reported Jul 9 11:53 am — Jul 24 11:00 am, Tallahassee. Weather by CustomWeather, © 2017

Note: Actual official high and low records may vary slightly from our data, if they occured in-between our weather recording intervals... More about our weather records

Advertising

Tallahassee Weather History for the Previous 24 Hours

Scroll right to see more
 ConditionsComfort  
Time TempWeatherWind HumidityBarometerVisibility
11:00 am
Mon, Jul 24
84 °FBroken clouds.7 mph74%30.02 "Hg10 mi
10:09 am84 °FPartly sunny.12 mph77%30.00 "Hg10 mi
9:53 am83 °FBroken clouds.12 mph77%30.00 "Hg10 mi
8:53 am79 °FScattered clouds.10 mph88%30.01 "Hg10 mi
7:53 am76 °FPassing clouds.No wind97%29.99 "Hg10 mi
6:53 am74 °FScattered clouds.No wind100%29.98 "Hg10 mi
5:53 am75 °FPassing clouds.No wind96%29.97 "Hg10 mi
4:53 am75 °FClear.No wind96%29.96 "Hg10 mi
3:53 am75 °FClear.No wind100%29.96 "Hg10 mi
2:53 am75 °FClear.3 mph100%29.96 "Hg10 mi
1:53 am76 °FClear.No wind97%29.97 "Hg10 mi
12:53 am76 °FClear.3 mph100%29.97 "Hg10 mi
11:53 pm
Sun, Jul 23
77 °FClear.No wind96%29.97 "Hg10 mi
10:53 pm78 °FPassing clouds.No wind93%29.96 "Hg10 mi
9:53 pm79 °FPassing clouds.No wind94%29.94 "Hg10 mi
8:53 pm80 °FPassing clouds.5 mph90%29.95 "Hg10 mi
7:53 pm82 °FScattered clouds.8 mph82%29.93 "Hg10 mi
6:53 pm81 °FBroken clouds.7 mph85%29.93 "Hg10 mi
5:53 pm82 °FBroken clouds.10 mph82%29.95 "Hg10 mi
4:53 pm81 °FBroken clouds.9 mph79%29.96 "Hg10 mi
3:53 pm79 °FBroken clouds.7 mph90%29.97 "Hg10 mi
2:53 pm77 °FLight rain. Broken clouds.8 mph90%30.00 "Hg10 mi
2:26 pm77 °FPassing clouds.6 mph90%30.01 "Hg10 mi
1:53 pm78 °FThunderstorms. Cloudy.8 mph87%30.02 "Hg10 mi
1:26 pm79 °FBroken clouds.7 mph88%30.02 "Hg10 mi
12:53 pm80 °FThunderstorms. Broken clouds.7 mph85%30.01 "Hg10 mi
12:26 pm80 °FThunderstorms. Broken clouds.8 mph90%30.02 "Hg10 mi
Weather by CustomWeather, © 2017

See weather overviewHow to use our weather pages